Greenville, ME

8:58 PM EST on November 21, 2019 (GMT -0500)
Greenville

Weather History for KGNR - September, 2019

Change the Weather History Date:

Thursday, September 26, 2019

  Actual Average (WUND) Record (WUND)
Temperature  
Mean Temperature 57 °F -  
Max Temperature 68 °F - - (-1)
Min Temperature 48 °F - - (-1)
Degree Days  
Heating Degree Days 8    
Growing Degree Days 7 (Base 50)    
Moisture  
Dew Point 51 °F    
Average Humidity 86    
Maximum Humidity 96    
Minimum Humidity 66    
Precipitation  
Precipitation 0.34 in - - ()
Sea Level Pressure  
Sea Level Pressure 29.74 in    
Wind  
Wind Speed 5 mph ()    
Max Wind Speed 12 mph    
Max Gust Speed 18 mph    
Averages and records for this station are not official NWS values.
T = Trace of Precipitation, MM = Missing Value Source: Averaged Metar Reports

Daily Weather History Graph

Daily Weather History Graph

Search for Another Location

Airport or City:

Astronomy

Sep. 26, 2019 Rise Set
Actual Time 6:29 AM EDT 6:28 PM EDT
Civil Twilight 6:00 AM EDT 6:58 PM EDT
Nautical Twilight 5:25 AM EDT 7:32 PM EDT
Astronomical Twilight 4:50 AM EDT 8:07 PM EDT
Moon 3:19 AM EDT (9/26) 5:49 PM EDT (9/26)
Length of Visible Light 12h 57m
Length of Day
11h 58m
Waning Crescent, 7% of the Moon is Illuminated
Sep 26
Waning Crescent
Sep 28
New
Oct 5
First Quarter
Oct 13
Full
Oct 21
Last Quarter

Hourly Weather History & Observations

Time (EDT) Temp. Dew Point Humidity Pressure Visibility Wind Dir Wind Speed Gust Speed Precip Events Conditions
12:56 AM 48.9 °F 46.0 °F 90% 29.81 in - Calm Calm - N/A   Unknown
1:56 AM 48.0 °F 45.0 °F 89% 29.81 in - SE 5.8 mph - N/A   Unknown
2:56 AM 48.9 °F 46.0 °F 90% 29.79 in - SE 6.9 mph - N/A   Unknown
3:56 AM 48.9 °F 46.9 °F 93% 29.78 in - SE 6.9 mph - N/A   Unknown
4:56 AM 50.0 °F 46.9 °F 89% 29.78 in - SE 6.9 mph - N/A   Unknown
5:56 AM 50.0 °F 48.0 °F 93% 29.78 in - SE 5.8 mph - N/A   Unknown
6:56 AM 50.0 °F 46.9 °F 89% 29.78 in - SE 6.9 mph - N/A   Unknown
7:56 AM 51.1 °F 48.9 °F 92% 29.78 in - ESE 6.9 mph - N/A   Unknown
8:56 AM 55.0 °F 50.0 °F 83% 29.77 in - SE 8.1 mph - N/A   Unknown
9:56 AM 57.0 °F 51.1 °F 81% 29.74 in - SE 9.2 mph - N/A   Unknown
10:56 AM 60.1 °F 53.1 °F 78% 29.73 in - SE 9.2 mph - N/A   Unknown
11:56 AM 64.9 °F 55.0 °F 70% 29.70 in - SSE 8.1 mph - N/A   Unknown
12:56 PM 66.0 °F 55.0 °F 68% 29.66 in - SE 11.5 mph 18.4 mph N/A   Unknown
1:56 PM 66.9 °F 55.0 °F 66% 29.65 in - SSE 9.2 mph - N/A   Unknown
2:56 PM 64.0 °F 55.9 °F 75% 29.68 in - Variable 4.6 mph - N/A   Unknown
3:56 PM 61.0 °F 57.9 °F 90% 29.67 in - SSW 5.8 mph - 0.02 in   Unknown
4:00 PM - - N/A% - - North - - N/A   Unknown
4:56 PM 60.1 °F 57.9 °F 93% 29.69 in - Variable 5.8 mph - 0.09 in   Unknown
5:56 PM 54.0 °F 52.0 °F 93% 29.72 in - WNW 5.8 mph - 0.19 in   Unknown
7:56 PM 53.1 °F 52.0 °F 96% 29.71 in - Calm Calm - 0.04 in   Unknown
8:56 PM 54.0 °F 52.0 °F 93% 29.73 in - Variable 4.6 mph - N/A   Unknown
9:00 PM - - N/A% - - North - - N/A   Unknown
9:56 PM 53.1 °F 50.0 °F 89% 29.75 in - Variable 5.8 mph - N/A   Unknown
10:56 PM 52.0 °F 48.9 °F 89% 29.76 in - Variable 5.8 mph - N/A   Unknown
11:56 PM 52.0 °F 48.9 °F 89% 29.77 in - Variable 4.6 mph - N/A   Unknown